Location: Copiague
(40.6815°N, 73.3998°W)
Time: 19:43:24
(UTC+00:00)

Daily predictions for brighter satellites

Satellite Brightness Start Highest point End
(mag) Time Altitude Azimuth Time Altitude Azimuth Time Altitude Azimuth
Cosmos 2074 Rocket 4.3 22:18:15 10° S 22:24:33 80° W 22:30:52 10° N
Cosmos 494 Rocket 4.4 22:20:26 10° N 22:25:14 39° ENE 22:30:01 10° SE
Okean-O 3.0 22:21:41 10° SE 22:25:51 43° ENE 22:30:03 10° N
Okean O Rocket 3.7 22:22:10 10° SSW 22:26:10 33° W 22:30:12 10° NNW
Cosmos 1242 Rocket 2.7 22:26:45 10° SSW 22:30:13 75° W 22:33:46 10° N
Cosmos 1300 2.6 22:32:34 10° N 22:36:25 73° E 22:40:12 10° SSE
Atlas Centaur 2 4.2 22:36:56 10° SSE 22:38:14 11° SSE 22:39:37 10° SE
USA 267 4.3 22:33:06 10° NE 22:38:55 36° NNW 22:44:44 10° W
Cosmos 1825 Rocket 4.2 22:37:54 10° SSE 22:41:47 32° E 22:45:40 10° NNE
YAOGAN 6 2.8 22:39:03 10° SSE 22:42:38 50° ENE 22:46:12 10° N
Cosmos 1626 2.5 22:39:48 10° SSW 22:43:28 66° W 22:47:10 10° N
CZ-4C R/B 3.0 22:36:07 10° NNW 22:43:30 76° NE 22:51:50 10° SE
NOSS 0 Rocket 3.9 22:38:04 10° NNW 22:44:17 67° ENE 22:50:25 10° SE
Shenzhou-11 Module 3.1 22:43:23 10° SSW 22:45:44 27° SSE 22:47:35 13° E
Nadezhda 3 Rocket 4.0 22:42:36 10° N 22:48:56 85° E 22:55:16 10° S
ISS -3.0 22:47:32 10° SSW 22:50:40 37° SE 22:52:55 16° ENE
Cosmos 1455 3.4 22:48:49 10° NNE 22:51:45 21° ENE 22:54:39 10° SE
USA 32 4.0 22:51:19 10° S 22:56:28 64° E 23:01:38 10° N
Cosmos 2237 Rocket 2.3 22:51:01 10° NNW 22:56:33 55° ENE 23:02:03 10° SE
Cosmos 1340 Rocket 2.8 22:53:35 10° N 22:57:33 86° W 23:01:32 10° S
SL-8 R/B 4.0 22:54:32 10° SW 22:59:14 55° SE 23:02:40 18° ENE
Cosmos 2333 Rocket 3.3 22:54:42 10° NW 23:00:10 48° WSW 23:05:35 10° S
SKYMED 2 3.5 22:57:30 10° NNE 23:01:52 80° ESE 23:06:12 10° S
DELTA 2 R/B (1) 3.7 22:58:10 10° WSW 23:03:44 73° S 23:07:56 18° E
CSL-04 Rocket 3.9 23:00:36 10° SE 23:05:49 48° ENE 23:11:07 10° N
Cosmos 724 4.4 23:00:53 10° SSW 23:06:54 84° WNW 23:12:49 10° NNE
SL-8 Rocket 4.1 23:01:32 10° SSE 23:07:40 56° E 23:13:48 10° NNE
Cosmos 44 3.7 23:03:47 10° S 23:08:06 39° ESE 23:10:38 21° ENE
USA 116 3.5 23:05:58 17° NE 23:08:07 40° E 23:11:03 10° S
Cosmos 2341 Rocket 4.0 23:03:30 10° S 23:09:52 81° E 23:16:15 10° N
USA 234 3.9 23:05:52 10° SSE 23:12:16 57° SW 23:18:41 10° NW
Cosmos 1812 Rocket 4.3 23:08:36 10° NNW 23:12:59 56° W 23:17:21 10° S
Meteor 1-21 Rocket 4.2 23:09:22 10° S 23:14:55 85° E 23:20:38 10° N
FALCON 9 R/B 4.4 22:59:22 10° SW 23:16:36 29° SSE 23:22:17 13° ESE
ERBS 3.1 23:14:22 10° WSW 23:17:34 44° NW 23:19:29 21° NNE
SL-16 R/B 2.9 23:13:04 10° N 23:18:08 32° ENE 23:21:07 20° ESE
YAOGAN 1 2.5 23:14:01 10° SSE 23:18:17 64° ENE 23:22:35 10° N
Cosmos 2219 3.6 23:15:25 10° SW 23:20:58 64° WNW 23:26:35 10° NNE
BREEZE-M DEB (TANK) 4.0 23:17:02 10° SSW 23:21:05 29° SSE 23:21:44 26° ESE
Cosmos 1939 Rocket 2.9 23:18:17 10° SSE 23:22:02 49° ENE 23:25:52 10° N
Envisat 4.3 23:17:38 10° S 23:22:26 43° W 23:27:17 10° NNW
Cosmos 2082 3.8 23:18:26 10° S 23:23:50 51° ESE 23:27:41 19° NE
Cosmos-2242 2.9 23:19:34 10° N 23:23:54 71° E 23:28:09 10° SSE
Cosmos 2297 Rocket 2.4 23:28:40 10° SSW 23:34:18 71° WNW 23:39:58 10° NNE
Cosmos 1703 3.1 23:34:19 10° S 23:38:15 72° E 23:40:19 27° NNE
Cosmos 1980 4.2 23:33:16 10° NNW 23:38:54 63° WSW 23:44:29 10° S
Haruka 4.3 23:38:00 10° SSW 23:40:45 21° SSE 23:41:49 20° SE
Cosmos 2218 Rocket 4.0 23:34:49 10° S 23:41:08 86° E 23:47:34 10° N
Cosmos 864 Rocket 4.3 23:40:23 10° S 23:46:31 85° E 23:52:40 10° N
Cosmos 2227 Rocket 2.6 23:41:05 10° SW 23:46:40 62° WNW 23:51:48 13° NNE
NOAA 11 4.3 23:41:59 10° S 23:47:29 78° WSW 23:53:00 10° NNW
Cosmos 1339 Rocket 4.4 23:41:44 10° N 23:47:50 89° W 23:53:59 10° S
ATLAS CENTAUR R/B 3.7 23:46:17 10° N 23:46:40 12° N 23:46:40 12° N
Cosmos 1953 Rocket 4.0 23:44:46 10° SSW 23:49:12 64° W 23:53:41 10° N
COSMO-SKYMED 1 4.4 23:46:01 10° N 23:49:49 30° WNW 23:53:35 10° SW
CZ-4 R/B 2.9 23:48:15 10° SSW 23:51:59 37° W 23:55:49 10° NNW
